Location: Waltman Observatory
(32.5145°N, 90.4450°W)
Time: 15:05:50
(UTC-05:00)

Amateur Radio Satellites - All Passes

Search period start: 29 August 2014 14:35
Search period end: 30 August 2014 14:35
Location: Waltman Observatory, 32.5145°N, 90.4450°W

Satellite Date Start Highest point End Downlink Frequencies (MHz)
Time Altitude Azimuth
UOSAT-12 29 Aug 14:38:06 14:41:52 23° 53° (NE) 14:45:34 437.025 FM, 437.400 FM
Gurwin Techsat 1B 29 Aug 14:38:28 14:43:25 42° 72° (ENE) 14:48:23 435.225 FM
MaSat-1 29 Aug 14:43:50 14:47:36 22° 302° (WNW) 14:51:34 437.345 MHz
Oscar 19 29 Aug 15:01:49 15:05:28 19° 265° (W) 15:09:08 437.125 CW, 437.150 USB
PANSAT 29 Aug 15:26:42 15:30:20 41° 187° (S) 15:33:59 not established
ITAMSAT 1 29 Aug 15:30:25 15:34:31 24° 264° (W) 15:38:39 435.822 SSB
TMSAT-1 29 Aug 15:30:34 15:35:51 82° 257° (WSW) 15:41:10 436.925 FM
JAS-1B 29 Aug 15:35:33 15:44:49 45° 261° (W) 15:53:34 435.800 - 435.900 CW/SSB
RS-15 29 Aug 15:39:06 15:47:14 22° 40° (NE) 15:55:30 29.354 - 29.394 USB, Beacon 29.352 USB
AO-Echo 29 Aug 15:41:03 15:44:09 16° 265° (W) 15:47:13 ?
Uribyol 2 29 Aug 15:41:39 15:44:58 17° 266° (W) 15:48:19 436.500 FM
Oscar 10/S400 29 Aug 15:41:52 16:01:47 29° 150° (SSE) 16:18:00 145.825 - 145.975 CW/USB, Beacon 145.810 USB
AO-7 29 Aug 15:44:16 15:51:55 42° 65° (ENE) 15:59:32 29.400 - 29.500 MHz
AO-27 29 Aug 16:01:54 16:03:28 11° 268° (W) 16:05:02 436.795 MHz FM
Sapphire 29 Aug 16:06:34 16:09:35 15° 104° (ESE) 16:12:36 437.095 MHz 1200 baud AX-25 AFSK
OPAL 29 Aug 16:13:59 16:15:27 11° 94° (E) 16:16:55 ?
UOSAT-12 29 Aug 16:17:50 16:22:01 32° 248° (WSW) 16:26:07 437.025 FM, 437.400 FM
Gurwin Techsat 1B 29 Aug 16:19:48 16:23:29 19° 265° (W) 16:27:11 435.225 FM
Uosat F 29 Aug 16:27:57 16:32:55 68° 75° (ENE) 16:37:53 435.120 FM
PCSat 29 Aug 16:34:11 16:38:56 32° 108° (ESE) 16:43:42 145.825 MHz
PANSAT 29 Aug 17:07:15 17:10:09 20° 199° (SSW) 17:13:02 not established
JAS-2 29 Aug 17:33:50 17:39:23 33° 71° (ENE) 17:44:24 435.800 - 435.900 CW/SSB, 435.910 FM
AO-7 29 Aug 17:37:04 17:44:36 37° 260° (W) 17:52:10 29.400 - 29.500 MHz
Sapphire 29 Aug 17:47:11 17:52:27 55° 298° (WNW) 17:57:47 437.095 MHz 1200 baud AX-25 AFSK
OPAL 29 Aug 17:49:30 17:54:41 68° 287° (WNW) 17:59:50 ?
RS-15 29 Aug 17:50:08 18:01:21 84° 62° (ENE) 18:13:03 29.354 - 29.394 USB, Beacon 29.352 USB
PCSat 29 Aug 18:17:43 18:22:17 28° 303° (WNW) 18:26:54 145.825 MHz
Hamsat 29 Aug 18:27:20 18:31:36 71° 259° (W) 18:35:56 145.90 MHz
ISS 29 Aug 18:30:18 18:33:37 67° 43° (NE) 18:36:55 145.800 FM
SO-67 29 Aug 18:40:00 18:42:01 15° 71° (ENE) 18:44:03 435.3500 MHz FM
JAS-2 29 Aug 19:18:47 19:24:22 30° 261° (W) 19:29:26 435.800 - 435.900 CW/SSB, 435.910 FM
STRAND 1 29 Aug 19:31:15 19:36:14 53° 101° (E) 19:41:12 ?
RS-15 29 Aug 20:05:01 20:12:26 21° 258° (WSW) 20:20:06 29.354 - 29.394 USB, Beacon 29.352 USB
SO-67 29 Aug 20:12:08 20:14:51 22° 264° (W) 20:17:35 435.3500 MHz FM
HO-68 29 Aug 20:36:55 20:43:30 42° 68° (ENE) 20:50:05 435.675 MHz FM
STRAND 1 29 Aug 21:12:10 21:14:56 15° 294° (WNW) 21:17:42 ?
UKube-1 29 Aug 21:44:24 21:48:44 82° 76° (ENE) 21:53:06 145.840 MHz, 145.915 MHz
Oscar 11 29 Aug 21:51:47 21:56:01 57° 75° (ENE) 22:00:17 145.825 FM, Beacon 2401.500 USB
FUNcube-1 29 Aug 22:14:56 22:18:44 35° 73° (ENE) 22:22:35 145.950 - 145.970 MHz USB
HO-68 29 Aug 22:25:04 22:31:11 31° 262° (W) 22:37:21 435.675 MHz FM
Saudisat 1A 29 Aug 22:43:12 22:47:32 63° 116° (ESE) 22:51:54 436.775 MHz
MaSat-1 29 Aug 23:05:27 23:09:19 29° 60° (ENE) 23:12:43 437.345 MHz
KITSAT 1 29 Aug 23:29:31 23:37:27 64° 112° (ESE) 23:45:25 435.175 FM
FUNcube-1 29 Aug 23:53:08 23:55:14 14° 267° (W) 23:57:21 145.950 - 145.970 MHz USB
Saudisat 1A 30 Aug 00:25:46 00:27:30 12° 312° (NW) 00:29:15 436.775 MHz
MaSat-1 30 Aug 00:43:14 00:45:57 17° 260° (W) 00:48:26 437.345 MHz
KITSAT 1 30 Aug 01:26:47 01:33:20 26° 310° (NW) 01:39:54 435.175 FM
PCSat 30 Aug 01:28:48 01:30:29 11° 49° (NE) 01:32:10 145.825 MHz
Oscar 19 30 Aug 01:38:17 01:42:05 20° 95° (E) 01:45:51 437.125 CW, 437.150 USB
ITAMSAT 1 30 Aug 02:08:57 02:12:11 17° 94° (E) 02:15:25 435.822 SSB
Oscar 16 30 Aug 02:11:59 02:17:01 48° 100° (E) 02:22:00 437.025 USB, Beacon 2401.1428
AO-Echo 30 Aug 02:13:11 02:16:31 19° 95° (E) 02:19:52 ?
Uribyol 2 30 Aug 02:18:28 02:22:31 23° 96° (E) 02:26:34 436.500 FM
AO-27 30 Aug 02:36:32 02:41:13 34° 98° (E) 02:45:52 436.795 MHz FM
Sapphire 30 Aug 02:39:46 02:44:57 44° 61° (ENE) 02:50:06 437.095 MHz 1200 baud AX-25 AFSK
SO-50 30 Aug 02:43:05 02:44:42 12° 107° (ESE) 02:46:21 436.795 FM
Gurwin Techsat 1B 30 Aug 02:59:50 03:04:06 24° 96° (E) 03:08:21 435.225 FM
PCSat 30 Aug 03:09:10 03:14:37 90° 268° (W) 03:20:01 145.825 MHz
Oscar 19 30 Aug 03:16:42 03:21:28 38° 288° (WNW) 03:26:12 437.125 CW, 437.150 USB
OPAL 30 Aug 03:24:27 03:26:40 13° 62° (ENE) 03:28:54 ?
JAS-1B 30 Aug 03:28:30 03:35:06 86° 104° (ESE) 03:40:53 435.800 - 435.900 CW/SSB
ITAMSAT 1 30 Aug 03:46:55 03:51:50 46° 287° (WNW) 03:56:45 435.822 SSB
AO-Echo 30 Aug 03:51:09 03:55:19 32° 288° (WNW) 03:59:30 ?
TMSAT-1 30 Aug 03:51:11 03:56:25 59° 101° (E) 04:01:37 436.925 FM
Oscar 16 30 Aug 03:52:43 03:55:55 17° 294° (WNW) 03:59:07 437.025 USB, Beacon 2401.1428
AO-7 30 Aug 03:53:01 03:57:41 16° 94° (E) 04:02:18 29.400 - 29.500 MHz
Uribyol 2 30 Aug 03:57:21 04:01:59 34° 289° (WNW) 04:06:37 436.500 FM
AO-27 30 Aug 04:16:27 04:20:29 23° 292° (WNW) 04:24:31 436.795 MHz FM
SO-50 30 Aug 04:20:24 04:24:43 51° 301° (WNW) 04:29:09 436.795 FM
Sapphire 30 Aug 04:24:12 04:27:58 19° 255° (WSW) 04:31:44 437.095 MHz 1200 baud AX-25 AFSK
Gurwin Techsat 1B 30 Aug 04:39:20 04:44:01 33° 289° (WNW) 04:48:42 435.225 FM
Oscar 10/S400 30 Aug 04:39:51 05:58:06 30° 251° (WSW) 09:25:44 145.825 - 145.975 CW/USB, Beacon 145.810 USB
Uosat F 30 Aug 04:40:45 04:45:07 30° 98° (E) 04:49:28 435.120 FM
UOSAT-12 30 Aug 04:45:43 04:48:49 18° 109° (ESE) 04:51:59 437.025 FM, 437.400 FM
OPAL 30 Aug 04:59:58 05:04:56 63° 257° (WSW) 05:10:00 ?
JAS-1B 30 Aug 05:22:55 05:24:28 11° 304° (WNW) 05:26:00 435.800 - 435.900 CW/SSB
TMSAT-1 30 Aug 05:33:04 05:35:46 14° 295° (WNW) 05:38:28 436.925 FM
AO-7 30 Aug 05:42:50 05:51:08 83° 288° (WNW) 05:59:24 29.400 - 29.500 MHz
RS-15 30 Aug 06:01:45 06:07:35 16° 100° (E) 06:13:18 29.354 - 29.394 USB, Beacon 29.352 USB
Hamsat 30 Aug 06:18:09 06:21:55 28° 97° (E) 06:25:38 145.90 MHz
Uosat F 30 Aug 06:19:44 06:23:43 24° 291° (WNW) 06:27:41 435.120 FM
UOSAT-12 30 Aug 06:24:22 06:28:38 37° 303° (WNW) 06:32:59 437.025 FM, 437.400 FM
JAS-2 30 Aug 06:31:21 06:36:19 39° 100° (E) 06:41:42 435.800 - 435.900 CW/SSB, 435.910 FM
STRAND 1 30 Aug 06:42:44 06:47:36 48° 73° (ENE) 06:52:29 ?
Saudisat 1A 30 Aug 07:15:31 07:18:07 15° 50° (NE) 07:20:43 436.775 MHz
KITSAT 1 30 Aug 07:29:54 07:34:11 15° 42° (NE) 07:38:27 435.175 FM
AO-7 30 Aug 07:38:29 07:42:40 15° 305° (NW) 07:46:51 29.400 - 29.500 MHz
SO-67 30 Aug 07:39:46 07:42:53 31° 98° (E) 07:45:59 435.3500 MHz FM
Hamsat 30 Aug 07:54:34 07:57:38 19° 290° (WNW) 08:00:41 145.90 MHz
RS-15 30 Aug 08:07:08 08:18:20 87° 116° (ESE) 08:29:18 29.354 - 29.394 USB, Beacon 29.352 USB
JAS-2 30 Aug 08:17:22 08:21:12 21° 291° (WNW) 08:25:14 435.800 - 435.900 CW/SSB, 435.910 FM
STRAND 1 30 Aug 08:24:02 08:26:58 15° 266° (W) 08:29:55 ?
Saudisat 1A 30 Aug 08:53:42 08:57:56 47° 246° (WSW) 09:02:08 436.775 MHz
SO-67 30 Aug 09:14:59 09:15:34 10° 291° (WNW) 09:16:10 435.3500 MHz FM
KITSAT 1 30 Aug 09:22:55 09:31:00 73° 62° (ENE) 09:39:02 435.175 FM
ISS 30 Aug 09:33:48 09:36:16 20° 128° (SE) 09:38:45 145.800 FM
UKube-1 30 Aug 09:38:10 09:41:21 20° 96° (E) 09:44:31 145.840 MHz, 145.915 MHz
Oscar 11 30 Aug 09:45:27 09:47:58 15° 94° (E) 09:50:29 145.825 FM, Beacon 2401.500 USB
HO-68 30 Aug 09:56:27 10:03:35 67° 103° (ESE) 10:10:41 435.675 MHz FM
FUNcube-1 30 Aug 10:10:42 10:12:00 11° 93° (E) 10:13:18 145.950 - 145.970 MHz USB
RS-15 30 Aug 10:23:36 10:32:04 25° 318° (NW) 10:40:32 29.354 - 29.394 USB, Beacon 29.352 USB
ISS 30 Aug 11:09:55 11:12:51 28° 322° (NW) 11:15:47 145.800 FM
UKube-1 30 Aug 11:13:50 11:17:30 27° 289° (WNW) 11:21:09 145.840 MHz, 145.915 MHz
Oscar 11 30 Aug 11:20:14 11:24:13 36° 287° (WNW) 11:28:12 145.825 FM, Beacon 2401.500 USB
KITSAT 1 30 Aug 11:20:19 11:25:32 19° 257° (WSW) 11:30:44 435.175 FM
PANSAT 30 Aug 11:42:23 11:45:30 23° 163° (SSE) 11:48:36 not established
FUNcube-1 30 Aug 11:44:10 11:48:36 54° 285° (WNW) 11:53:05 145.950 - 145.970 MHz USB
HO-68 30 Aug 11:45:44 11:50:35 20° 299° (WNW) 11:55:27 435.675 MHz FM
MaSat-1 30 Aug 12:48:01 12:52:14 33° 105° (ESE) 12:56:46 437.345 MHz
Oscar 19 30 Aug 12:51:11 12:54:46 19° 67° (ENE) 12:58:21 437.125 CW, 437.150 USB
SO-50 30 Aug 12:56:12 13:00:43 40° 57° (ENE) 13:05:16 436.795 FM
PANSAT 30 Aug 13:21:39 13:25:20 43° 175° (S) 13:29:01 not established
AO-Echo 30 Aug 13:22:12 13:25:29 18° 68° (ENE) 13:28:42 ?
ITAMSAT 1 30 Aug 13:23:03 13:26:16 17° 66° (ENE) 13:29:28 435.822 SSB
Oscar 16 30 Aug 13:24:29 13:29:20 44° 72° (ENE) 13:34:14 437.025 USB, Beacon 2401.1428
Uribyol 2 30 Aug 13:32:19 13:36:13 22° 68° (ENE) 13:40:08 436.500 FM
AO-27 30 Aug 13:50:24 13:54:58 33° 70° (ENE) 13:59:33 436.795 MHz FM
JAS-1B 30 Aug 14:04:01 14:13:33 56° 71° (ENE) 14:22:19 435.800 - 435.900 CW/SSB
Gurwin Techsat 1B 30 Aug 14:16:41 14:20:57 25° 69° (ENE) 14:25:13 435.225 FM
MaSat-1 30 Aug 14:25:22 14:29:17 24° 301° (WNW) 14:33:24 437.345 MHz
